Location: Baili�vre
(50.0696°N, 4.2409°E)
Time: 23:36:06
(UTC+00:00)

USA 267 - Pass Details

Date: 08 August 2020
Orbit: 1101 x 1106 km, 123.0° (Epoch: 22 September)

Event Time Altitude Azimuth Distance (km) Brightness Sun altitude
Rises 21:22:42 0° 58° (ENE) 3,929 6.1 -16.7°
Reaches altitude 10° 21:25:11 10° 58° (ENE) 2,970 5.5 -17.0°
Maximum altitude 21:31:44 81° 333° (NNW) 1,124 3.4 -17.6°
Drops below altitude 10° 21:38:18 10° 247° (WSW) 2,964 5.6 -18.2°
Sets 21:40:47 0° 246° (WSW) 3,921 6.3 -18.4°
